Time,TemperatureF,DewpointF,PressureIn,WindDirection,WindDirectionDegrees,WindSpeedMPH,WindSpeedGustMPH,Humidity,HourlyPrecipIn,Conditions,Clouds,dailyrainin,SolarRadiationWatts/m^2,SoftwareType,DateUTC
2013-05-23 00:01:00,52.5,52.5,29.72,NNW,330,2.0,4.0,100,0.15,,,0.62,0.0,meteohub,2013-05-23 04:01:00,
2013-05-23 00:06:00,52.5,52.5,29.72,ENE,75,1.0,4.0,100,0.13,,,0.63,0.0,meteohub,2013-05-23 04:06:00,
2013-05-23 00:11:00,52.5,52.5,29.72,North,0,2.0,5.0,100,0.13,,,0.64,0.0,meteohub,2013-05-23 04:11:00,
2013-05-23 00:16:00,52.3,52.3,29.73,NNE,16,0.0,6.0,100,0.13,,,0.65,0.0,meteohub,2013-05-23 04:16:00,
2013-05-23 00:21:00,52.3,52.3,29.73,NNE,32,1.0,6.0,100,0.12,,,0.65,0.0,meteohub,2013-05-23 04:21:00,
2013-05-23 00:26:00,52.3,52.3,29.73,NE,34,2.0,6.0,100,0.13,,,0.66,0.0,meteohub,2013-05-23 04:26:00,
2013-05-23 00:31:00,52.3,52.3,29.73,NE,36,2.0,8.0,100,0.13,,,0.67,0.0,meteohub,2013-05-23 04:31:00,
2013-05-23 00:37:00,52.2,52.2,29.73,NNE,15,2.0,8.0,100,0.14,,,0.68,0.0,meteohub,2013-05-23 04:37:00,
2013-05-23 00:41:00,52.0,52.0,29.73,NNE,27,2.0,9.0,100,0.14,,,0.69,0.0,meteohub,2013-05-23 04:41:00,
2013-05-23 00:47:00,52.0,52.0,29.73,NE,41,2.0,9.0,100,0.12,,,0.69,0.0,meteohub,2013-05-23 04:47:00,
2013-05-23 00:52:00,52.0,52.0,29.73,North,5,1.0,9.0,100,0.11,,,0.70,0.0,meteohub,2013-05-23 04:52:00,
2013-05-23 00:57:00,51.8,51.8,29.73,North,350,2.0,9.0,100,0.11,,,0.71,0.0,meteohub,2013-05-23 04:57:00,
2013-05-23 01:02:00,51.6,51.6,29.73,ENE,61,3.0,8.0,100,0.09,,,0.71,0.0,meteohub,2013-05-23 05:02:00,
2013-05-23 01:07:00,51.6,51.6,29.73,North,350,4.0,7.0,100,0.08,,,0.71,0.0,meteohub,2013-05-23 05:07:00,
2013-05-23 01:12:00,51.6,51.6,29.73,NNE,25,2.0,8.0,100,0.08,,,0.72,0.0,meteohub,2013-05-23 05:12:00,
2013-05-23 01:17:00,51.6,51.6,29.73,NE,46,1.0,8.0,100,0.08,,,0.73,0.0,meteohub,2013-05-23 05:17:00,
2013-05-23 01:22:00,51.4,51.4,29.73,North,355,3.0,8.0,100,0.07,,,0.73,0.0,meteohub,2013-05-23 05:22:00,
2013-05-23 01:27:00,51.4,51.4,29.73,ENE,67,5.0,7.0,100,0.06,,,0.73,0.0,meteohub,2013-05-23 05:27:00,
2013-05-23 01:32:00,51.4,51.4,29.73,ENE,66,4.0,8.0,100,0.06,,,0.73,0.0,meteohub,2013-05-23 05:32:00,
2013-05-23 01:37:00,51.6,51.6,29.73,East,90,2.0,8.0,100,0.05,,,0.73,0.0,meteohub,2013-05-23 05:37:00,
2013-05-23 01:42:00,51.4,51.4,29.73,NNW,347,2.0,8.0,100,0.04,,,0.73,0.0,meteohub,2013-05-23 05:42:00,
2013-05-23 01:47:00,51.4,51.4,29.73,North,5,3.0,15.0,100,0.03,,,0.73,0.0,meteohub,2013-05-23 05:47:00,
2013-05-23 01:52:00,51.4,51.4,29.73,ENE,59,3.0,15.0,100,0.03,,,0.74,0.0,meteohub,2013-05-23 05:52:00,
2013-05-23 01:57:00,51.4,51.4,29.73,NNE,13,2.0,9.0,100,0.03,,,0.74,0.0,meteohub,2013-05-23 05:57:00,
2013-05-23 02:02:00,51.4,51.4,29.73,NE,46,3.0,9.0,100,0.03,,,0.74,0.0,meteohub,2013-05-23 06:02:00,
2013-05-23 02:07:00,51.4,51.4,29.74,NNW,329,3.0,9.0,100,0.02,,,0.74,0.0,meteohub,2013-05-23 06:07:00,
2013-05-23 02:12:00,51.4,51.1,29.74,North,355,2.0,9.0,99,0.03,,,0.75,0.0,meteohub,2013-05-23 06:12:00,
2013-05-23 02:17:00,51.3,51.3,29.74,North,5,4.0,9.0,100,0.02,,,0.75,0.0,meteohub,2013-05-23 06:17:00,
2013-05-23 02:22:00,51.1,50.7,29.74,NNW,341,7.0,10.0,99,0.02,,,0.75,0.0,meteohub,2013-05-23 06:22:00,
2013-05-23 02:27:00,50.7,50.4,29.74,ENE,66,8.0,13.0,99,0.02,,,0.75,0.0,meteohub,2013-05-23 06:27:00,
2013-05-23 02:32:00,50.5,50.2,29.74,NE,53,6.0,13.0,99,0.02,,,0.75,0.0,meteohub,2013-05-23 06:32:00,
2013-05-23 02:37:00,50.4,50.0,29.75,NNE,20,4.0,13.0,99,0.02,,,0.75,0.0,meteohub,2013-05-23 06:37:00,
2013-05-23 02:42:00,50.2,49.6,29.75,NNW,340,3.0,13.0,98,0.02,,,0.75,0.0,meteohub,2013-05-23 06:42:00,
2013-05-23 02:47:00,50.2,49.6,29.75,North,355,3.0,10.0,98,0.01,,,0.75,0.0,meteohub,2013-05-23 06:47:00,
2013-05-23 02:52:00,50.0,49.5,29.75,NNW,335,0.0,8.0,98,0.01,,,0.75,0.0,meteohub,2013-05-23 06:52:00,
2013-05-23 02:57:00,49.8,49.3,29.75,NNE,12,2.0,8.0,98,0.01,,,0.75,0.0,meteohub,2013-05-23 06:57:00,
2013-05-23 03:02:00,49.6,49.1,29.75,SE,127,5.0,7.0,98,0.02,,,0.76,0.0,meteohub,2013-05-23 07:02:00,
2013-05-23 03:07:00,49.5,48.9,29.75,NW,323,3.0,10.0,98,0.02,,,0.76,0.0,meteohub,2013-05-23 07:07:00,
2013-05-23 03:12:00,49.1,48.6,29.76,NE,50,5.0,11.0,98,0.01,,,0.76,0.0,meteohub,2013-05-23 07:12:00,
2013-05-23 03:17:00,48.9,48.4,29.76,NNE,30,2.0,11.0,98,0.02,,,0.77,0.0,meteohub,2013-05-23 07:17:00,
2013-05-23 03:22:00,48.7,48.2,29.76,ENE,65,2.0,15.0,98,0.02,,,0.77,0.0,meteohub,2013-05-23 07:22:00,
2013-05-23 03:27:00,48.6,48.0,29.77,East,82,5.0,15.0,98,0.02,,,0.77,0.0,meteohub,2013-05-23 07:27:00,
2013-05-23 03:32:00,48.4,47.8,29.77,NE,34,3.0,11.0,98,0.02,,,0.77,0.0,meteohub,2013-05-23 07:32:00,
2013-05-23 03:37:00,48.4,47.8,29.77,NNE,28,2.0,8.0,98,0.02,,,0.77,0.0,meteohub,2013-05-23 07:37:00,
2013-05-23 03:42:00,48.2,47.7,29.77,North,0,4.0,7.0,98,0.02,,,0.77,0.0,meteohub,2013-05-23 07:42:00,
2013-05-23 03:47:00,48.0,47.5,29.77,NE,47,7.0,8.0,98,0.03,,,0.78,0.0,meteohub,2013-05-23 07:47:00,
2013-05-23 03:54:00,47.8,47.3,29.77,NW,324,2.0,12.0,98,0.04,,,0.79,0.0,meteohub,2013-05-23 07:54:00,
2013-05-23 03:59:00,47.5,46.9,29.77,ENE,78,7.0,12.0,98,0.04,,,0.79,0.0,meteohub,2013-05-23 07:59:00,
2013-05-23 04:04:00,47.1,46.6,29.77,North,9,1.0,12.0,98,0.03,,,0.79,0.0,meteohub,2013-05-23 08:04:00,
2013-05-23 04:09:00,46.9,46.4,29.77,NE,43,5.0,11.0,98,0.04,,,0.80,0.0,meteohub,2013-05-23 08:09:00,
2013-05-23 04:14:00,46.9,46.4,29.78,NNE,30,6.0,11.0,98,0.04,,,0.80,0.0,meteohub,2013-05-23 08:14:00,
2013-05-23 04:19:00,46.8,46.2,29.78,NE,44,3.0,17.0,98,0.03,,,0.80,0.0,meteohub,2013-05-23 08:19:00,
2013-05-23 04:24:00,46.8,46.2,29.78,NE,42,3.0,17.0,98,0.04,,,0.81,0.0,meteohub,2013-05-23 08:24:00,
2013-05-23 04:29:00,46.6,46.0,29.78,NNE,27,4.0,15.0,98,0.04,,,0.81,0.0,meteohub,2013-05-23 08:29:00,
2013-05-23 04:35:00,46.6,46.0,29.78,NE,41,2.0,14.0,98,0.05,,,0.82,0.0,meteohub,2013-05-23 08:35:00,
2013-05-23 04:40:00,46.6,46.0,29.79,NNE,20,1.0,14.0,98,0.07,,,0.84,0.0,meteohub,2013-05-23 08:40:00,
2013-05-23 04:45:00,46.6,46.0,29.79,SSE,148,2.0,12.0,98,0.07,,,0.85,0.0,meteohub,2013-05-23 08:45:00,
2013-05-23 04:50:00,46.4,45.9,29.79,SSE,150,2.0,10.0,98,0.08,,,0.86,0.0,meteohub,2013-05-23 08:50:00,
2013-05-23 04:55:00,46.2,46.0,29.79,NNE,31,1.0,10.0,99,0.08,,,0.87,0.0,meteohub,2013-05-23 08:55:00,
2013-05-23 05:00:00,46.0,45.9,29.80,North,5,2.0,10.0,99,0.08,,,0.88,0.0,meteohub,2013-05-23 09:00:00,
2013-05-23 05:05:00,45.9,45.3,29.80,NNE,29,4.0,8.0,98,0.08,,,0.88,0.0,meteohub,2013-05-23 09:05:00,
2013-05-23 05:10:00,45.7,45.1,29.81,NNE,12,7.0,9.0,98,0.08,,,0.89,0.0,meteohub,2013-05-23 09:10:00,
2013-05-23 05:15:00,45.3,44.8,29.81,NNE,32,3.0,9.0,98,0.09,,,0.89,0.0,meteohub,2013-05-23 09:15:00,
2013-05-23 05:20:00,45.0,44.4,29.81,NE,35,2.0,9.0,98,0.08,,,0.89,0.0,meteohub,2013-05-23 09:20:00,
2013-05-23 05:25:00,44.8,44.2,29.81,NNE,28,5.0,11.0,98,0.08,,,0.89,0.0,meteohub,2013-05-23 09:25:00,
2013-05-23 05:30:00,44.4,43.9,29.81,NNE,24,2.0,14.0,98,0.08,,,0.89,0.0,meteohub,2013-05-23 09:30:00,
2013-05-23 05:35:00,44.2,43.7,29.81,NW,325,3.0,14.0,98,0.05,,,0.89,0.0,meteohub,2013-05-23 09:35:00,
2013-05-23 05:40:00,44.1,43.5,29.82,NW,317,2.0,14.0,98,0.05,,,0.89,0.0,meteohub,2013-05-23 09:40:00,
2013-05-23 05:45:00,44.1,43.5,29.82,North,355,7.0,10.0,98,0.04,,,0.89,0.0,meteohub,2013-05-23 09:45:00,
2013-05-23 05:50:00,44.1,43.5,29.83,North,5,2.0,8.0,98,0.03,,,0.89,0.0,meteohub,2013-05-23 09:50:00,
2013-05-23 05:55:00,44.1,43.5,29.83,NE,48,2.0,8.0,98,0.02,,,0.89,0.0,meteohub,2013-05-23 09:55:00,
2013-05-23 06:00:00,44.1,43.5,29.83,North,355,1.0,8.0,98,0.02,,,0.90,0.0,meteohub,2013-05-23 10:00:00,
2013-05-23 06:05:00,43.9,43.3,29.83,WSW,252,4.0,9.0,98,0.01,,,0.90,0.0,meteohub,2013-05-23 10:05:00,
2013-05-23 06:10:00,43.5,43.0,29.83,NE,34,4.0,13.0,98,0.01,,,0.90,0.0,meteohub,2013-05-23 10:10:00,
2013-05-23 06:15:00,43.3,42.8,29.84,NNE,15,2.0,13.0,98,0.01,,,0.90,5.0,meteohub,2013-05-23 10:15:00,
2013-05-23 06:20:00,43.3,42.6,29.84,NE,47,2.0,9.0,97,0.01,,,0.90,5.0,meteohub,2013-05-23 10:20:00,
2013-05-23 06:25:00,43.2,42.6,29.84,NNE,13,2.0,12.0,98,0.01,,,0.90,5.0,meteohub,2013-05-23 10:25:00,
2013-05-23 06:30:00,43.2,42.6,29.85,North,355,1.0,12.0,98,0.01,,,0.90,5.0,meteohub,2013-05-23 10:30:00,
2013-05-23 06:35:00,43.2,42.4,29.85,NNE,15,2.0,12.0,97,0.01,,,0.90,5.0,meteohub,2013-05-23 10:35:00,
2013-05-23 06:40:00,43.2,42.6,29.85,WNW,303,2.0,7.0,98,0.01,,,0.90,9.0,meteohub,2013-05-23 10:40:00,
2013-05-23 06:45:00,43.3,42.8,29.85,North,9,1.0,7.0,98,0.01,,,0.90,9.0,meteohub,2013-05-23 10:45:00,
2013-05-23 06:50:00,43.3,42.8,29.85,North,5,2.0,7.0,98,0.01,,,0.90,16.0,meteohub,2013-05-23 10:50:00,
2013-05-23 06:56:00,43.2,42.6,29.86,North,5,1.0,10.0,98,0.01,,,0.90,16.0,meteohub,2013-05-23 10:56:00,
2013-05-23 07:01:00,43.0,42.4,29.86,NNW,342,3.0,10.0,98,0.00,,,0.90,14.0,meteohub,2013-05-23 11:01:00,
2013-05-23 07:06:00,42.8,42.3,29.86,NNE,26,4.0,12.0,98,0.01,,,0.91,21.0,meteohub,2013-05-23 11:06:00,
2013-05-23 07:11:00,42.6,42.1,29.86,ENE,74,7.0,12.0,98,0.01,,,0.91,21.0,meteohub,2013-05-23 11:11:00,
2013-05-23 07:16:00,42.4,41.7,29.87,NNE,28,2.0,12.0,97,0.02,,,0.92,21.0,meteohub,2013-05-23 11:16:00,
2013-05-23 07:21:00,42.4,41.7,29.87,North,350,3.0,7.0,97,0.02,,,0.92,25.0,meteohub,2013-05-23 11:21:00,
2013-05-23 07:26:00,42.4,41.9,29.88,NNW,333,1.0,7.0,98,0.03,,,0.93,26.0,meteohub,2013-05-23 11:26:00,
2013-05-23 07:31:00,42.4,41.9,29.88,NNW,336,1.0,6.0,98,0.03,,,0.93,21.0,meteohub,2013-05-23 11:31:00,
2013-05-23 07:36:00,42.4,41.9,29.88,NNW,338,3.0,6.0,98,0.03,,,0.93,19.0,meteohub,2013-05-23 11:36:00,
2013-05-23 07:41:00,42.4,41.9,29.88,ENE,59,1.0,6.0,98,0.04,,,0.94,19.0,meteohub,2013-05-23 11:41:00,
2013-05-23 07:46:00,42.4,41.9,29.89,NW,317,1.0,6.0,98,0.04,,,0.94,23.0,meteohub,2013-05-23 11:46:00,
2013-05-23 07:51:00,42.4,41.9,29.89,WNW,298,1.0,9.0,98,0.04,,,0.94,23.0,meteohub,2013-05-23 11:51:00,
2013-05-23 07:56:00,42.4,41.9,29.90,NNE,28,1.0,9.0,98,0.05,,,0.95,33.0,meteohub,2013-05-23 11:56:00,
2013-05-23 08:01:00,42.4,41.9,29.90,NE,45,1.0,8.0,98,0.05,,,0.95,35.0,meteohub,2013-05-23 12:01:00,
2013-05-23 08:06:00,42.3,41.7,29.90,NNW,330,2.0,13.0,98,0.05,,,0.96,44.0,meteohub,2013-05-23 12:06:00,
2013-05-23 08:11:00,42.1,41.5,29.91,North,355,1.0,13.0,98,0.06,,,0.97,49.0,meteohub,2013-05-23 12:11:00,
2013-05-23 08:16:00,41.7,41.2,29.91,North,355,2.0,10.0,98,0.05,,,0.97,47.0,meteohub,2013-05-23 12:16:00,
2013-05-23 08:21:00,41.5,41.0,29.91,NNW,342,2.0,15.0,98,0.05,,,0.97,49.0,meteohub,2013-05-23 12:21:00,
2013-05-23 08:26:00,41.4,40.6,29.91,NNE,26,3.0,15.0,97,0.05,,,0.98,51.0,meteohub,2013-05-23 12:26:00,
2013-05-23 08:31:00,41.4,40.6,29.92,NNW,331,4.0,15.0,97,0.05,,,0.98,56.0,meteohub,2013-05-23 12:31:00,
2013-05-23 08:36:00,41.2,40.5,29.92,North,0,6.0,9.0,97,0.06,,,0.99,65.0,meteohub,2013-05-23 12:36:00,
2013-05-23 08:41:00,41.2,40.6,29.92,NNW,341,1.0,9.0,98,0.07,,,1.00,72.0,meteohub,2013-05-23 12:41:00,
2013-05-23 08:46:00,41.4,40.8,29.93,NE,45,0.0,7.0,98,0.07,,,1.01,54.0,meteohub,2013-05-23 12:46:00,
2013-05-23 08:51:00,41.5,41.0,29.93,NW,307,3.0,6.0,98,0.07,,,1.02,111.0,meteohub,2013-05-23 12:51:00,
2013-05-23 08:56:00,41.4,40.8,29.93,NE,44,2.0,5.0,98,0.08,,,1.02,109.0,meteohub,2013-05-23 12:56:00,
2013-05-23 09:01:00,41.5,41.0,29.94,NNE,28,4.0,5.0,98,0.08,,,1.03,113.0,meteohub,2013-05-23 13:01:00,
2013-05-23 09:06:00,41.5,41.0,29.94,ESE,104,2.0,5.0,98,0.07,,,1.03,90.0,meteohub,2013-05-23 13:06:00,
2013-05-23 09:11:00,41.5,41.0,29.94,North,0,2.0,6.0,98,0.06,,,1.03,77.0,meteohub,2013-05-23 13:11:00,
2013-05-23 09:16:00,41.5,41.0,29.94,NW,320,1.0,6.0,98,0.06,,,1.03,76.0,meteohub,2013-05-23 13:16:00,
2013-05-23 09:22:00,41.4,40.8,29.94,North,5,2.0,5.0,98,0.05,,,1.03,107.0,meteohub,2013-05-23 13:22:00,
2013-05-23 09:27:00,41.4,40.8,29.95,NNW,342,0.0,5.0,98,0.05,,,1.03,91.0,meteohub,2013-05-23 13:27:00,
2013-05-23 09:32:00,41.4,40.8,29.95,North,350,0.0,5.0,98,0.04,,,1.03,81.0,meteohub,2013-05-23 13:32:00,
2013-05-23 09:37:00,41.2,40.6,29.96,North,355,3.0,4.0,98,0.05,,,1.04,100.0,meteohub,2013-05-23 13:37:00,
2013-05-23 09:42:00,41.2,40.6,29.96,North,5,1.0,5.0,98,0.03,,,1.04,93.0,meteohub,2013-05-23 13:42:00,
2013-05-23 09:47:00,41.0,40.5,29.96,NNW,333,2.0,5.0,98,0.03,,,1.04,135.0,meteohub,2013-05-23 13:47:00,
2013-05-23 09:52:00,41.2,40.6,29.96,ESE,112,3.0,6.0,98,0.02,,,1.04,151.0,meteohub,2013-05-23 13:52:00,
2013-05-23 09:57:00,41.2,40.6,29.96,NNE,13,1.0,6.0,98,0.01,,,1.04,167.0,meteohub,2013-05-23 13:57:00,
2013-05-23 10:02:00,41.4,40.8,29.97,NE,45,4.0,5.0,98,0.01,,,1.04,171.0,meteohub,2013-05-23 14:02:00,
2013-05-23 10:07:00,41.4,40.6,29.97,NNW,346,1.0,5.0,97,0.01,,,1.04,172.0,meteohub,2013-05-23 14:07:00,
2013-05-23 10:12:00,41.4,40.6,29.97,ENE,57,4.0,8.0,97,0.01,,,1.04,209.0,meteohub,2013-05-23 14:12:00,
2013-05-23 10:17:00,41.4,40.6,29.97,North,351,2.0,8.0,97,0.01,,,1.04,121.0,meteohub,2013-05-23 14:17:00,
2013-05-23 10:22:00,41.2,40.1,29.98,NNW,346,2.0,8.0,96,0.01,,,1.04,135.0,meteohub,2013-05-23 14:22:00,
2013-05-23 10:27:00,41.4,40.6,29.98,North,355,2.0,8.0,97,0.01,,,1.04,142.0,meteohub,2013-05-23 14:27:00,
2013-05-23 10:32:00,41.4,40.6,29.99,SSW,195,0.0,9.0,97,0.00,,,1.04,195.0,meteohub,2013-05-23 14:32:00,
2013-05-23 10:37:00,41.4,40.3,29.99,North,11,1.0,9.0,96,0.00,,,1.04,267.0,meteohub,2013-05-23 14:37:00,
2013-05-23 10:42:00,42.3,41.2,29.99,ENE,74,2.0,9.0,96,0.00,,,1.04,283.0,meteohub,2013-05-23 14:42:00,
2013-05-23 10:47:00,42.3,40.6,29.99,NNW,348,0.0,5.0,94,0.00,,,1.04,267.0,meteohub,2013-05-23 14:47:00,
2013-05-23 10:52:00,42.6,41.0,29.99,NE,55,1.0,7.0,94,0.00,,,1.04,186.0,meteohub,2013-05-23 14:52:00,
2013-05-23 10:57:00,42.4,40.6,29.99,NNE,23,0.0,7.0,93,0.00,,,1.04,211.0,meteohub,2013-05-23 14:57:00,
2013-05-23 11:02:00,42.4,41.2,30.00,NNW,328,1.0,7.0,95,0.00,,,1.04,209.0,meteohub,2013-05-23 15:02:00,
2013-05-23 11:07:00,42.6,41.0,30.00,NNW,341,1.0,7.0,94,0.00,,,1.04,250.0,meteohub,2013-05-23 15:07:00,
2013-05-23 11:12:00,43.0,41.4,30.00,NW,323,1.0,7.0,94,0.00,,,1.04,225.0,meteohub,2013-05-23 15:12:00,
2013-05-23 11:17:00,43.2,41.5,30.00,NW,323,0.0,7.0,94,0.00,,,1.04,211.0,meteohub,2013-05-23 15:17:00,
2013-05-23 11:22:00,43.2,41.5,30.00,NNW,336,2.0,6.0,94,0.00,,,1.04,199.0,meteohub,2013-05-23 15:22:00,
2013-05-23 11:27:00,43.2,41.4,30.00,NNE,13,3.0,6.0,93,0.00,,,1.04,162.0,meteohub,2013-05-23 15:27:00,
2013-05-23 11:32:00,43.0,40.8,30.01,North,11,2.0,6.0,92,0.00,,,1.04,220.0,meteohub,2013-05-23 15:32:00,
2013-05-23 11:37:00,43.0,40.5,30.01,North,10,2.0,6.0,91,0.00,,,1.04,288.0,meteohub,2013-05-23 15:37:00,
2013-05-23 11:42:00,43.3,41.5,30.01,NE,47,4.0,6.0,93,0.00,,,1.04,269.0,meteohub,2013-05-23 15:42:00,
2013-05-23 11:47:00,43.5,41.0,30.01,WNW,302,3.0,5.0,91,0.00,,,1.04,225.0,meteohub,2013-05-23 15:47:00,
2013-05-23 11:52:00,43.3,40.6,30.01,North,0,0.0,5.0,90,0.00,,,1.04,202.0,meteohub,2013-05-23 15:52:00,
2013-05-23 11:57:00,43.2,39.9,30.01,NNE,17,1.0,6.0,88,0.00,,,1.04,316.0,meteohub,2013-05-23 15:57:00,
2013-05-23 12:02:00,43.9,40.8,30.02,NE,42,2.0,8.0,89,0.00,,,1.04,487.0,meteohub,2013-05-23 16:02:00,
2013-05-23 12:07:00,44.2,40.6,30.02,NW,313,2.0,8.0,87,0.00,,,1.04,338.0,meteohub,2013-05-23 16:07:00,
2013-05-23 12:12:00,44.2,40.1,30.02,WNW,294,1.0,9.0,85,0.00,,,1.04,288.0,meteohub,2013-05-23 16:12:00,
2013-05-23 12:17:00,44.4,40.5,30.02,NW,313,2.0,9.0,86,0.00,,,1.04,353.0,meteohub,2013-05-23 16:17:00,
2013-05-23 12:22:00,44.4,40.3,30.02,NW,322,3.0,9.0,85,0.00,,,1.04,390.0,meteohub,2013-05-23 16:22:00,
2013-05-23 12:27:00,45.1,41.2,30.03,West,281,1.0,7.0,86,0.00,,,1.04,540.0,meteohub,2013-05-23 16:27:00,
2013-05-23 12:32:00,45.3,40.5,30.03,WNW,290,1.0,7.0,83,0.00,,,1.04,446.0,meteohub,2013-05-23 16:32:00,
2013-05-23 12:37:00,45.0,40.1,30.03,ENE,75,2.0,8.0,83,0.00,,,1.04,515.0,meteohub,2013-05-23 16:37:00,
2013-05-23 12:42:00,45.9,40.6,30.03,NW,313,2.0,9.0,82,0.00,,,1.04,664.0,meteohub,2013-05-23 16:42:00,
2013-05-23 12:47:00,46.4,39.6,30.04,NW,326,3.0,9.0,77,0.00,,,1.04,459.0,meteohub,2013-05-23 16:47:00,
2013-05-23 12:52:00,45.5,39.4,30.04,North,355,2.0,9.0,79,0.00,,,1.04,431.0,meteohub,2013-05-23 16:52:00,
2013-05-23 12:57:00,45.3,39.6,30.03,WNW,296,3.0,7.0,80,0.00,,,1.04,758.0,meteohub,2013-05-23 16:57:00,
2013-05-23 13:02:00,46.8,39.9,30.04,NW,321,3.0,7.0,77,0.00,,,1.04,1065.0,meteohub,2013-05-23 17:02:00,
2013-05-23 13:07:00,47.3,39.7,30.03,North,5,3.0,7.0,75,0.00,,,1.04,728.0,meteohub,2013-05-23 17:07:00,
2013-05-23 13:13:00,46.8,39.6,30.04,South,170,1.0,8.0,76,0.00,,,1.04,591.0,meteohub,2013-05-23 17:13:00,
2013-05-23 13:18:00,46.2,38.1,30.04,North,351,3.0,8.0,73,0.00,,,1.04,508.0,meteohub,2013-05-23 17:18:00,
2013-05-23 13:23:00,46.2,39.0,30.04,North,11,2.0,9.0,76,0.00,,,1.04,517.0,meteohub,2013-05-23 17:23:00,
2013-05-23 13:28:00,46.6,37.8,30.04,NNW,336,2.0,9.0,71,0.00,,,1.04,742.0,meteohub,2013-05-23 17:28:00,
2013-05-23 13:33:00,47.1,38.5,30.04,NW,317,2.0,9.0,72,0.00,,,1.04,622.0,meteohub,2013-05-23 17:33:00,
2013-05-23 13:38:00,47.5,39.6,30.04,NNW,348,2.0,8.0,74,0.00,,,1.04,972.0,meteohub,2013-05-23 17:38:00,
2013-05-23 13:43:00,48.2,39.9,30.04,NNW,333,3.0,8.0,73,0.00,,,1.04,921.0,meteohub,2013-05-23 17:43:00,
2013-05-23 13:48:00,47.5,38.8,30.04,NW,317,3.0,7.0,72,0.00,,,1.04,656.0,meteohub,2013-05-23 17:48:00,
2013-05-23 13:53:00,47.7,38.3,30.04,NW,304,3.0,10.0,70,0.00,,,1.04,807.0,meteohub,2013-05-23 17:53:00,
2013-05-23 13:58:00,47.7,39.0,30.04,North,5,3.0,10.0,72,0.00,,,1.04,768.0,meteohub,2013-05-23 17:58:00,
2013-05-23 14:03:00,47.5,38.8,30.05,West,279,2.0,7.0,72,0.00,,,1.04,612.0,meteohub,2013-05-23 18:03:00,
2013-05-23 14:08:00,46.9,37.6,30.05,NW,319,2.0,7.0,70,0.00,,,1.04,735.0,meteohub,2013-05-23 18:08:00,
2013-05-23 14:13:00,47.5,38.5,30.05,NNE,15,4.0,7.0,71,0.00,,,1.04,817.0,meteohub,2013-05-23 18:13:00,
2013-05-23 14:18:00,47.5,38.1,30.05,West,280,3.0,7.0,70,0.00,,,1.04,661.0,meteohub,2013-05-23 18:18:00,
2013-05-23 14:23:00,47.1,37.4,30.05,NNW,348,2.0,7.0,69,0.00,,,1.04,763.0,meteohub,2013-05-23 18:23:00,
2013-05-23 14:28:00,47.7,38.7,30.05,NW,317,1.0,11.0,71,0.00,,,1.04,803.0,meteohub,2013-05-23 18:28:00,
2013-05-23 14:33:00,48.2,40.3,30.05,WNW,292,3.0,11.0,74,0.00,,,1.04,686.0,meteohub,2013-05-23 18:33:00,
2013-05-23 14:38:00,48.0,37.2,30.05,WNW,298,4.0,11.0,66,0.00,,,1.04,963.0,meteohub,2013-05-23 18:38:00,
2013-05-23 14:43:00,48.0,37.2,30.05,WNW,283,4.0,11.0,66,0.00,,,1.04,870.0,meteohub,2013-05-23 18:43:00,
2013-05-23 14:48:00,47.8,38.1,30.05,North,0,2.0,11.0,69,0.00,,,1.04,758.0,meteohub,2013-05-23 18:48:00,
2013-05-23 14:53:00,47.8,37.0,30.05,North,355,1.0,9.0,66,0.00,,,1.04,717.0,meteohub,2013-05-23 18:53:00,
2013-05-23 14:58:00,47.8,36.7,30.05,NW,317,4.0,8.0,65,0.00,,,1.04,779.0,meteohub,2013-05-23 18:58:00,
2013-05-23 15:03:00,47.7,36.9,30.05,NNW,329,3.0,9.0,66,0.00,,,1.04,809.0,meteohub,2013-05-23 19:03:00,
2013-05-23 15:08:00,48.4,36.7,30.06,NW,317,4.0,10.0,64,0.00,,,1.04,701.0,meteohub,2013-05-23 19:08:00,
2013-05-23 15:13:00,48.9,39.2,30.06,WSW,237,1.0,10.0,69,0.00,,,1.04,860.0,meteohub,2013-05-23 19:13:00,
2013-05-23 15:18:00,49.3,38.8,30.06,South,170,3.0,9.0,67,0.00,,,1.04,1030.0,meteohub,2013-05-23 19:18:00,
2013-05-23 15:23:00,48.6,36.9,30.06,NW,323,2.0,11.0,64,0.00,,,1.04,461.0,meteohub,2013-05-23 19:23:00,
2013-05-23 15:28:00,48.0,37.6,30.06,NW,317,3.0,11.0,67,0.00,,,1.04,601.0,meteohub,2013-05-23 19:28:00,
2013-05-23 15:33:00,48.6,37.4,30.06,North,355,1.0,11.0,65,0.00,,,1.04,788.0,meteohub,2013-05-23 19:33:00,
2013-05-23 15:38:00,50.0,37.6,30.06,NW,321,4.0,10.0,62,0.00,,,1.04,645.0,meteohub,2013-05-23 19:38:00,
2013-05-23 15:44:00,48.2,36.1,30.06,NNW,347,2.0,10.0,63,0.00,,,1.04,779.0,meteohub,2013-05-23 19:44:00,
2013-05-23 15:49:00,48.6,38.1,30.06,ENE,65,5.0,13.0,67,0.00,,,1.04,868.0,meteohub,2013-05-23 19:49:00,
2013-05-23 15:54:00,48.6,36.1,30.06,NW,309,2.0,13.0,62,0.00,,,1.04,684.0,meteohub,2013-05-23 19:54:00,
2013-05-23 15:59:00,48.6,36.5,30.06,South,171,3.0,13.0,63,0.00,,,1.04,886.0,meteohub,2013-05-23 19:59:00,
2013-05-23 16:04:00,49.5,38.1,30.06,NNW,329,3.0,7.0,65,0.00,,,1.04,939.0,meteohub,2013-05-23 20:04:00,
2013-05-23 16:09:00,50.0,37.6,30.06,West,281,2.0,10.0,62,0.00,,,1.04,896.0,meteohub,2013-05-23 20:09:00,
2013-05-23 16:14:00,50.2,38.1,30.06,North,355,3.0,10.0,63,0.00,,,1.04,851.0,meteohub,2013-05-23 20:14:00,
2013-05-23 16:19:00,49.8,36.9,30.06,NW,304,2.0,10.0,61,0.00,,,1.04,828.0,meteohub,2013-05-23 20:19:00,
2013-05-23 16:24:00,50.5,39.2,30.07,NNW,344,3.0,7.0,65,0.00,,,1.04,809.0,meteohub,2013-05-23 20:24:00,
2013-05-23 16:29:00,50.5,36.7,30.06,NW,313,1.0,7.0,59,0.00,,,1.04,789.0,meteohub,2013-05-23 20:29:00,
2013-05-23 16:34:00,50.2,37.2,30.06,North,355,4.0,8.0,61,0.00,,,1.04,775.0,meteohub,2013-05-23 20:34:00,
2013-05-23 16:39:00,50.2,38.1,30.07,North,355,4.0,8.0,63,0.00,,,1.04,761.0,meteohub,2013-05-23 20:39:00,
2013-05-23 16:44:00,50.4,39.0,30.07,East,82,2.0,8.0,65,0.00,,,1.04,749.0,meteohub,2013-05-23 20:44:00,
2013-05-23 16:49:00,50.5,37.6,30.07,NW,321,4.0,8.0,61,0.00,,,1.04,737.0,meteohub,2013-05-23 20:49:00,
2013-05-23 16:54:00,50.4,38.3,30.07,NW,322,4.0,8.0,63,0.00,,,1.04,722.0,meteohub,2013-05-23 20:54:00,
2013-05-23 16:59:00,50.2,36.3,30.07,NNE,18,2.0,6.0,59,0.00,,,1.04,708.0,meteohub,2013-05-23 20:59:00,
2013-05-23 17:04:00,49.8,36.9,30.07,NNW,336,2.0,6.0,61,0.00,,,1.04,422.0,meteohub,2013-05-23 21:04:00,
2013-05-23 17:09:00,49.6,37.6,30.07,WNW,286,3.0,6.0,63,0.00,,,1.04,77.0,meteohub,2013-05-23 21:09:00,
2013-05-23 17:14:00,49.8,37.8,30.07,North,5,2.0,6.0,63,0.00,,,1.04,137.0,meteohub,2013-05-23 21:14:00,
2013-05-23 17:19:00,49.6,36.7,30.07,WNW,286,4.0,8.0,61,0.00,,,1.04,102.0,meteohub,2013-05-23 21:19:00,
2013-05-23 17:25:00,49.6,37.6,30.07,WNW,290,4.0,8.0,63,0.00,,,1.04,223.0,meteohub,2013-05-23 21:25:00,
2013-05-23 17:30:00,49.5,36.1,30.08,NW,304,1.0,9.0,60,0.00,,,1.04,91.0,meteohub,2013-05-23 21:30:00,
2013-05-23 17:35:00,49.6,37.2,30.08,WNW,285,3.0,9.0,62,0.00,,,1.04,63.0,meteohub,2013-05-23 21:35:00,
2013-05-23 17:40:00,49.6,37.6,30.08,WNW,293,3.0,7.0,63,0.00,,,1.04,44.0,meteohub,2013-05-23 21:40:00,
2013-05-23 17:45:00,49.5,36.5,30.08,NNW,337,6.0,6.0,61,0.00,,,1.04,44.0,meteohub,2013-05-23 21:45:00,
2013-05-23 17:50:00,49.3,36.3,30.08,NW,304,2.0,8.0,61,0.00,,,1.04,42.0,meteohub,2013-05-23 21:50:00,
2013-05-23 17:55:00,49.3,37.2,30.08,NNW,332,2.0,8.0,63,0.00,,,1.04,44.0,meteohub,2013-05-23 21:55:00,
2013-05-23 18:00:00,49.3,36.9,30.08,WNW,287,2.0,8.0,62,0.00,,,1.04,39.0,meteohub,2013-05-23 22:00:00,
2013-05-23 18:05:00,49.3,36.3,30.08,North,355,3.0,10.0,61,0.00,,,1.04,39.0,meteohub,2013-05-23 22:05:00,
2013-05-23 18:10:00,49.1,35.8,30.09,NNW,329,1.0,10.0,60,0.00,,,1.04,37.0,meteohub,2013-05-23 22:10:00,
2013-05-23 18:15:00,48.9,37.2,30.09,NE,49,3.0,7.0,64,0.00,,,1.04,37.0,meteohub,2013-05-23 22:15:00,
2013-05-23 18:20:00,48.9,37.8,30.09,NW,309,2.0,7.0,65,0.00,,,1.04,35.0,meteohub,2013-05-23 22:20:00,
2013-05-23 18:25:00,48.9,36.9,30.09,North,349,3.0,7.0,63,0.00,,,1.04,35.0,meteohub,2013-05-23 22:25:00,
2013-05-23 18:30:00,48.9,37.2,30.09,NNW,338,2.0,7.0,64,0.00,,,1.04,33.0,meteohub,2013-05-23 22:30:00,
2013-05-23 18:36:00,49.1,37.8,30.09,WNW,302,2.0,7.0,65,0.00,,,1.04,35.0,meteohub,2013-05-23 22:36:00,
2013-05-23 18:41:00,48.9,36.5,30.09,West,267,2.0,7.0,62,0.00,,,1.04,33.0,meteohub,2013-05-23 22:41:00,
2013-05-23 18:46:00,48.9,38.1,30.09,NW,321,2.0,5.0,66,0.00,,,1.04,32.0,meteohub,2013-05-23 22:46:00,
2013-05-23 18:51:00,48.7,36.7,30.09,NNW,348,1.0,5.0,63,0.00,,,1.04,32.0,meteohub,2013-05-23 22:51:00,
2013-05-23 18:56:00,48.7,37.0,30.09,NW,319,2.0,5.0,64,0.00,,,1.04,30.0,meteohub,2013-05-23 22:56:00,
2013-05-23 19:01:00,48.6,36.5,30.10,NW,306,3.0,5.0,63,0.00,,,1.04,30.0,meteohub,2013-05-23 23:01:00,
2013-05-23 19:06:00,48.4,35.6,30.10,NW,306,1.0,7.0,61,0.00,,,1.04,28.0,meteohub,2013-05-23 23:06:00,
2013-05-23 19:11:00,48.4,36.3,30.10,NNW,334,4.0,10.0,63,0.00,,,1.04,28.0,meteohub,2013-05-23 23:11:00,
2013-05-23 19:16:00,48.2,36.7,30.10,North,350,1.0,11.0,64,0.00,,,1.04,26.0,meteohub,2013-05-23 23:16:00,
2013-05-23 19:21:00,48.2,37.0,30.10,NW,322,2.0,11.0,65,0.00,,,1.04,26.0,meteohub,2013-05-23 23:21:00,
2013-05-23 19:26:00,48.2,37.4,30.10,North,9,2.0,7.0,66,0.00,,,1.04,28.0,meteohub,2013-05-23 23:26:00,
2013-05-23 19:31:00,48.0,36.5,30.11,NW,309,2.0,7.0,64,0.00,,,1.04,39.0,meteohub,2013-05-23 23:31:00,
2013-05-23 19:36:00,48.0,36.0,30.11,WNW,296,2.0,7.0,63,0.00,,,1.04,25.0,meteohub,2013-05-23 23:36:00,
2013-05-23 19:41:00,47.8,35.8,30.11,NNW,348,2.0,8.0,63,0.00,,,1.04,25.0,meteohub,2013-05-23 23:41:00,
2013-05-23 19:46:00,47.8,37.0,30.11,NNW,335,2.0,8.0,66,0.00,,,1.04,23.0,meteohub,2013-05-23 23:46:00,
2013-05-23 19:51:00,47.7,36.5,30.12,NW,305,2.0,8.0,65,0.00,,,1.04,21.0,meteohub,2013-05-23 23:51:00,
2013-05-23 19:56:00,47.7,36.5,30.12,NW,307,1.0,6.0,65,0.00,,,1.04,21.0,meteohub,2013-05-23 23:56:00,
2013-05-23 20:01:00,47.7,36.5,30.12,NW,319,1.0,6.0,65,0.00,,,1.04,19.0,meteohub,2013-05-24 00:01:00,
2013-05-23 20:06:00,47.5,36.3,30.12,WNW,288,1.0,6.0,65,0.00,,,0.00,19.0,meteohub,2013-05-24 00:06:00,
2013-05-23 20:11:00,47.3,36.9,30.13,NW,305,0.0,6.0,67,0.00,,,0.00,18.0,meteohub,2013-05-24 00:11:00,
2013-05-23 20:17:00,47.1,35.6,30.13,WNW,296,1.0,9.0,64,0.00,,,0.00,18.0,meteohub,2013-05-24 00:17:00,
2013-05-23 20:22:00,46.9,36.9,30.13,East,82,2.0,9.0,68,0.00,,,0.00,16.0,meteohub,2013-05-24 00:22:00,
2013-05-23 20:27:00,46.9,36.1,30.13,WNW,299,1.0,9.0,66,0.00,,,0.00,16.0,meteohub,2013-05-24 00:27:00,
2013-05-23 20:32:00,46.8,36.7,30.13,North,10,4.0,6.0,68,0.00,,,0.00,14.0,meteohub,2013-05-24 00:32:00,
2013-05-23 20:37:00,46.6,36.1,30.13,WNW,292,2.0,10.0,67,0.00,,,0.00,12.0,meteohub,2013-05-24 00:37:00,
2013-05-23 20:42:00,46.4,36.0,30.13,NNW,338,1.0,10.0,67,0.00,,,0.00,12.0,meteohub,2013-05-24 00:42:00,
2013-05-23 20:47:00,46.2,37.0,30.14,WNW,302,4.0,10.0,70,0.00,,,0.00,11.0,meteohub,2013-05-24 00:47:00,
2013-05-23 20:52:00,46.0,35.8,30.14,West,263,3.0,7.0,67,0.00,,,0.00,9.0,meteohub,2013-05-24 00:52:00,
2013-05-23 20:57:00,45.9,36.0,30.14,NW,315,2.0,7.0,68,0.00,,,0.00,7.0,meteohub,2013-05-24 00:57:00,
2013-05-23 21:02:00,45.7,35.8,30.14,NW,326,2.0,7.0,68,0.00,,,0.00,5.0,meteohub,2013-05-24 01:02:00,
2013-05-23 21:07:00,45.7,36.1,30.14,NW,304,1.0,4.0,69,0.00,,,0.00,5.0,meteohub,2013-05-24 01:07:00,
2013-05-23 21:12:00,45.3,35.4,30.14,NNW,345,2.0,4.0,68,0.00,,,0.00,0.0,meteohub,2013-05-24 01:12:00,
2013-05-23 21:17:00,45.1,35.6,30.14,NW,305,3.0,7.0,69,0.00,,,0.00,0.0,meteohub,2013-05-24 01:17:00,
2013-05-23 21:22:00,45.1,35.6,30.15,WSW,256,2.0,7.0,69,0.00,,,0.00,0.0,meteohub,2013-05-24 01:22:00,
2013-05-23 21:27:00,45.0,36.1,30.15,West,273,2.0,6.0,71,0.00,,,0.00,0.0,meteohub,2013-05-24 01:27:00,
2013-05-23 21:32:00,44.8,36.3,30.15,South,182,1.0,4.0,72,0.00,,,0.00,0.0,meteohub,2013-05-24 01:32:00,
2013-05-23 21:37:00,44.6,36.1,30.15,NW,317,2.0,5.0,72,0.00,,,0.00,0.0,meteohub,2013-05-24 01:37:00,
2013-05-23 21:42:00,44.6,36.5,30.15,West,268,1.0,6.0,73,0.00,,,0.00,0.0,meteohub,2013-05-24 01:42:00,
2013-05-23 21:47:00,44.4,36.3,30.16,NW,311,2.0,6.0,73,0.00,,,0.00,0.0,meteohub,2013-05-24 01:47:00,
2013-05-23 21:52:00,44.2,36.5,30.16,WNW,291,1.0,6.0,74,0.00,,,0.00,0.0,meteohub,2013-05-24 01:52:00,
2013-05-23 21:57:00,44.1,36.7,30.17,WSW,244,1.0,3.0,75,0.00,,,0.00,0.0,meteohub,2013-05-24 01:57:00,
2013-05-23 22:03:00,44.1,36.0,30.17,WNW,299,2.0,4.0,73,0.00,,,0.00,0.0,meteohub,2013-05-24 02:03:00,
2013-05-23 22:08:00,44.1,35.6,30.17,NW,306,2.0,7.0,72,0.00,,,0.00,0.0,meteohub,2013-05-24 02:08:00,
2013-05-23 22:13:00,43.9,35.8,30.17,NW,321,1.0,7.0,73,0.00,,,0.00,0.0,meteohub,2013-05-24 02:13:00,
2013-05-23 22:18:00,43.9,36.1,30.17,SW,232,2.0,7.0,74,0.00,,,0.00,0.0,meteohub,2013-05-24 02:18:00,
2013-05-23 22:23:00,43.7,36.0,30.18,NNW,329,2.0,6.0,74,0.00,,,0.00,0.0,meteohub,2013-05-24 02:23:00,
2013-05-23 22:28:00,43.5,35.8,30.18,WNW,285,1.0,6.0,74,0.00,,,0.00,0.0,meteohub,2013-05-24 02:28:00,
2013-05-23 22:33:00,43.5,36.1,30.19,NNE,21,2.0,6.0,75,0.00,,,0.00,0.0,meteohub,2013-05-24 02:33:00,
2013-05-23 22:38:00,43.3,36.0,30.19,WNW,286,4.0,6.0,75,0.00,,,0.00,0.0,meteohub,2013-05-24 02:38:00,
2013-05-23 22:43:00,43.2,35.8,30.19,North,5,1.0,6.0,75,0.00,,,0.00,0.0,meteohub,2013-05-24 02:43:00,
2013-05-23 22:48:00,43.2,35.8,30.19,NW,320,2.0,5.0,75,0.00,,,0.00,0.0,meteohub,2013-05-24 02:48:00,
2013-05-23 22:53:00,43.0,35.6,30.19,NW,312,1.0,5.0,75,0.00,,,0.00,0.0,meteohub,2013-05-24 02:53:00,
2013-05-23 22:58:00,42.8,35.8,30.19,WNW,290,1.0,5.0,76,0.00,,,0.00,0.0,meteohub,2013-05-24 02:58:00,
2013-05-23 23:03:00,42.6,35.6,30.19,NNE,20,1.0,7.0,76,0.00,,,0.00,0.0,meteohub,2013-05-24 03:03:00,
2013-05-23 23:08:00,42.4,35.4,30.19,ESE,115,1.0,7.0,76,0.00,,,0.00,0.0,meteohub,2013-05-24 03:08:00,
2013-05-23 23:13:00,42.4,35.8,30.19,NNW,342,2.0,7.0,77,0.00,,,0.00,0.0,meteohub,2013-05-24 03:13:00,
2013-05-23 23:18:00,42.4,35.4,30.19,NNW,329,1.0,6.0,76,0.00,,,0.00,0.0,meteohub,2013-05-24 03:18:00,
2013-05-23 23:23:00,42.3,35.6,30.20,NE,55,0.0,6.0,77,0.00,,,0.00,0.0,meteohub,2013-05-24 03:23:00,
2013-05-23 23:28:00,42.1,36.0,30.20,NNE,32,1.0,6.0,79,0.00,,,0.00,0.0,meteohub,2013-05-24 03:28:00,
2013-05-23 23:33:00,41.7,35.8,30.20,NNE,28,1.0,6.0,79,0.00,,,0.00,0.0,meteohub,2013-05-24 03:33:00,
2013-05-23 23:38:00,41.5,35.8,30.20,NNE,32,0.0,2.0,80,0.00,,,0.00,0.0,meteohub,2013-05-24 03:38:00,
2013-05-23 23:43:00,41.4,35.6,30.21,NNE,32,1.0,2.0,80,0.00,,,0.00,0.0,meteohub,2013-05-24 03:43:00,
2013-05-23 23:48:00,41.2,36.1,30.21,NNE,22,0.0,2.0,82,0.00,,,0.00,0.0,meteohub,2013-05-24 03:48:00,
2013-05-23 23:53:00,40.8,36.1,30.21,NNE,30,0.0,2.0,83,0.00,,,0.00,0.0,meteohub,2013-05-24 03:53:00,
2013-05-23 23:58:00,40.8,36.1,30.21,NNE,30,0.0,2.0,83,0.00,,,0.00,0.0,meteohub,2013-05-24 03:58:00,